NOAA 16 DEB

Satellite information

Favourite Embed

Satellite Type and Status

DEBRISIN ORBIT

Key statistics

Satellite NOAA 16 DEB at a glance.

Uptime

9215

Days in orbit

Revolutions

≈ 14.2

Per day

Orbit

SSO

Sun Synchronous Orbit

Inclination

98.7

Latest

Satellite identification and parameters

Extended collection of information and parameters for NOAA 16 DEB.

Object identification

Identified? True

Debris? True

Object name: NOAA 16 DEB

International designator: 2000-055SS

Object number (NORAD): 42398

Object ID (CCSDS): 42398

Country: UNITED STATES OF AMERICA (US)

Current information (Y/N): Y

RCS size: SMALL

Orbital parameters

Period: 101.681 minutes

Inclination: 98.6563 deg

SMA: 7216.38 km

Apoapsis: 860.813 km

Periapsis: 815.678 km

RAAN: 351.2486 deg

Eccentricy: 0.0031272

Argument of periapsis: 47.9699 deg

Mean anomaly: 312.4129 deg

Mean motion: 14.16196866 rev/day

Mean motion (dot): 0.0000443 rev/day2

B* drag term: 0.0022479 1/REarth

Two-line elements (TLE)

Creation date: Dec. 12, 2025, 7:16 a.m.

Reference frame: TEME

Reference center: EARTH

Epoch: Dec. 11, 2025, 11:54 p.m. UTC

TLE line 0: 0 NOAA 16 DEB

TLE line 1: 1 42398U 00055SS 25345.99628872 .00004430 00000-0 22479-2 0 9993

TLE line 2: 2 42398 98.6563 351.2486 0031272 47.9699 312.4129 14.16196866502639

Live tracking on map

Real-time ground track for satellite NOAA 16 DEB.

In-orbit conjunctions

A list of the most updated potential collisions computed for object NOAA 16 DEB.

Target Orbit TCA Probability of collision Miss distance Type
CZ-6A DEB LEO 2025-09-12 08:21:20 0.0003558649 111.0 (m) DEBRIS
FENGYUN 1C DEB SSO 2025-07-23 14:54:12 0.0001027559 302.0 (m) DEBRIS
SL-16 DEB LEO 2025-05-18 11:45:26 0.0003580026 60.0 (m) DEBRIS
CZ-6A DEB LEO 2025-01-27 06:25:26 0.0001676773 982.0 (m) DEBRIS

Associated space launch

The NOAA K, L and M POES satellites begin the fifth generation of improved environmental monitoring in support of NOAA missions. The instrument payload has significant improvements and additions/deletions. The instrument changes have effected the spacecraft subsystems and data formats.

NOAA 16 DEB was lifted into orbit during the mission ‘Titan II SLV | NOAA 16’, on board a Titan II SLV space rocket.

The launch took place on Sept. 21, 2000, 10:22 a.m. from Space Launch Complex 4W.

For more information about the launch, click the button.

Launch to space Titan II SLV | NOAA 16
Titan II SLV | NOAA 16

Agency: N/A

Status: Launch Successful

Launch date: Sept. 21, 2000, 10:22 a.m. UTC

Rocket: Titan II SLV

Launch pad: Space Launch Complex 4W

Location: Vandenberg SFB, CA, USA

...

Latest news about this satellite

There are no fresh news available about this satellite. Check back as we update our databases every day.


Newsletter sign-up

Weekly statistics, charts and insights to help you stay on top of the space industry.